Location: Calgary
(51.0833°N, 114.0833°W)
Time: 00:31:13
(UTC-07:00)

OTV 5 (USA 277) - Visible Passes

Search period start: 21 November 2018 00:00
Search period end: 01 December 2018 00:00
Orbit: 339 x 348 km, 54.5° (Epoch: 14 November)

Date Brightness Start Highest point End Pass type
(mag) Time Alt. Az. Time Alt. Az. Time Alt. Az.
24 Nov ? 07:16:53 10° S 07:18:56 18° SE 07:21:01 10° E visible
26 Nov ? 06:29:05 10° S 06:31:05 17° SE 06:33:06 10° E visible
27 Nov ? 06:51:37 10° SW 06:54:20 40° SSE 06:57:04 10° ENE visible
28 Nov ? 05:42:35 16° SSE 05:43:12 17° SE 05:45:09 10° E visible
28 Nov ? 07:14:52 10° WSW 07:17:44 89° S 07:20:37 10° ENE visible
29 Nov ? 06:05:55 34° S 06:06:25 38° SE 06:09:08 10° ENE visible
30 Nov ? 06:29:01 44° WSW 06:29:48 87° SSE 06:32:41 10° ENE visible
